Alpena, MI

11:25 PM EST on February 07, 2016 (GMT -0500)
Alpena County Regional

Weather History for KAPN - August, 2014

Change the Weather History Date:

Tuesday, August 26, 2014

  Actual Average Record
Temperature  
Mean Temperature 67 °F 64 °F  
Max Temperature 80 °F 76 °F 94 °F (1948)
Min Temperature 53 °F 52 °F 32 °F (1923)
Degree Days  
Heating Degree Days 0 3  
Month to date heating degree days 37 54  
Since 1 June heating degree days 218 241  
Since 1 July heating degree days 106 98  
Cooling Degree Days 2 2  
Month to date cooling degree days 30 70  
Year to date cooling degree days 141 255  
Since 1 June cooling degree days 136 242  
Growing Degree Days 18 (Base 50)    
Moisture  
Dew Point 64 °F    
Average Humidity 80    
Maximum Humidity 100    
Minimum Humidity 60    
Precipitation  
Precipitation 0.00 in 0.11 in 1.15 in (2006)
Month to date precipitation 4.17 2.69  
Year to date precipitation 20.76 18.24  
Sea Level Pressure  
Sea Level Pressure 30.01 in    
Wind  
Wind Speed 6 mph (WNW)    
Max Wind Speed 16 mph    
Max Gust Speed 19 mph    
Visibility 6 miles    
Events      
T = Trace of Precipitation, MM = Missing Value Source: NWS Daily Summary

Daily Weather History Graph

Daily Weather History Graph

Search for Another Location

Airport or City:

Trip Planner

Search our weather history database for the weather conditions in past years. The results will help you decide how hot, cold, wet, or windy it might be!

Date:

Astronomy

Aug. 26, 2014 Rise Set
Actual Time 6:48 AM EDT 8:22 PM EDT
Civil Twilight 6:18 AM EDT 8:52 PM EDT
Nautical Twilight 5:40 AM EDT 9:30 PM EDT
Astronomical Twilight 5:00 AM EDT 10:10 PM EDT
Moon 7:53 AM EDT (8/26) 8:36 PM EDT (8/26)
Length of Visible Light 14h 34m
Length of Day
13h 33m
New Moon, 1% of the Moon is Illuminated
Aug 26
New Moon
Sep 2
First Quarter
Sep 8
Full
Sep 15
Last Quarter
Sep 24
New

Hourly Weather History & Observations

Time (EDT) Temp. Dew Point Humidity Pressure Visibility Wind Dir Wind Speed Gust Speed Precip Events Conditions
12:54 AM 69.1 °F 68.0 °F 96% 29.96 in 7.0 mi Calm Calm - N/A   Partly Cloudy
1:21 AM 66.0 °F 66.0 °F 100% 29.97 in 1.8 mi South 4.6 mph - N/A   Clear
1:28 AM 66.9 °F 66.0 °F 97% 29.97 in 3.0 mi SSW 4.6 mph - N/A   Clear
1:54 AM 72.0 °F 71.1 °F 97% 29.97 in 8.0 mi SSW 6.9 mph - N/A   Clear
2:54 AM 69.1 °F 69.1 °F 100% 29.96 in 3.0 mi SSW 3.5 mph - N/A   Clear
2:59 AM 68.0 °F 68.0 °F 100% 29.97 in 1.8 mi SSW 3.5 mph - N/A   Clear
3:28 AM 66.9 °F 66.9 °F 100% 29.97 in 3.0 mi SSW 3.5 mph - N/A   Clear
3:54 AM 66.9 °F 66.9 °F 100% 29.97 in 2.5 mi Calm Calm - N/A   Clear
4:18 AM 64.9 °F 64.9 °F 100% 29.97 in 0.8 mi SW 3.5 mph - N/A   Clear
4:33 AM 66.9 °F 66.9 °F 100% 29.98 in 3.0 mi SW 4.6 mph - N/A   Clear
4:54 AM 69.8 °F 68.0 °F 94% 29.98 in 6.0 mi SW 3.5 mph - N/A   Clear
5:37 AM 64.9 °F 64.9 °F 100% 29.97 in 1.8 mi Calm Calm - N/A   Clear
5:54 AM 66.0 °F 64.9 °F 96% 29.97 in 4.0 mi SW 3.5 mph - N/A   Clear
6:14 AM 63.0 °F 63.0 °F 100% 29.99 in 1.5 mi North 5.8 mph - N/A   Clear
6:17 AM 62.1 °F 62.1 °F 100% 29.99 in 0.8 mi North 4.6 mph - N/A   Mist
6:23 AM 62.1 °F 61.0 °F 96% 29.98 in 1.0 mi Calm Calm - N/A   Mist
6:26 AM 64.0 °F 63.0 °F 96% 29.99 in 2.0 mi SW 3.5 mph - N/A   Partly Cloudy
6:33 AM 63.0 °F 63.0 °F 100% 29.99 in 5.0 mi Calm Calm - N/A   Scattered Clouds
6:41 AM 64.0 °F 63.0 °F 96% 29.99 in 3.0 mi Calm Calm - N/A   Mostly Cloudy
6:54 AM 66.0 °F 64.0 °F 93% 29.99 in 7.0 mi Calm Calm - N/A   Mostly Cloudy
7:41 AM 68.0 °F 66.0 °F 93% 30.02 in 2.0 mi Calm Calm - N/A   Overcast
7:54 AM 68.0 °F 66.9 °F 96% 30.02 in 2.5 mi Calm Calm - N/A   Overcast
8:03 AM 68.0 °F 68.0 °F 100% 30.02 in 1.5 mi Calm Calm - N/A   Overcast
8:28 AM 69.1 °F 68.0 °F 96% 30.03 in 1.2 mi West 3.5 mph - N/A   Overcast
8:54 AM 69.1 °F 68.0 °F 96% 30.02 in 1.5 mi West 3.5 mph - N/A   Overcast
9:03 AM 69.1 °F 69.1 °F 100% 30.03 in 2.0 mi West 3.5 mph - N/A   Overcast
9:19 AM 70.0 °F 69.1 °F 97% 30.02 in 3.0 mi Calm Calm - N/A   Overcast
9:54 AM 71.1 °F 69.1 °F 93% 30.02 in 5.0 mi NW 4.6 mph - N/A   Overcast
10:54 AM 71.6 °F 68.0 °F 88% 30.03 in 10.0 mi NW 3.5 mph - N/A   Overcast
11:50 AM 73.4 °F 66.2 °F 78% 30.03 in 10.0 mi WNW 5.8 mph - N/A   Overcast
11:54 AM 73.0 °F 66.9 °F 81% 30.03 in 10.0 mi West 5.8 mph - N/A   Overcast
12:29 PM 73.9 °F 66.9 °F 79% 30.03 in 10.0 mi Variable 4.6 mph - N/A   Overcast
12:54 PM 73.9 °F 66.0 °F 76% 30.02 in 10.0 mi Variable 5.8 mph - N/A   Overcast
1:54 PM 77.0 °F 66.9 °F 71% 30.02 in 10.0 mi Variable 3.5 mph - N/A   Overcast
2:27 PM 79.0 °F 66.0 °F 64% 30.03 in 10.0 mi West 6.9 mph - N/A   Scattered Clouds
2:54 PM 75.0 °F 60.1 °F 60% 30.02 in 10.0 mi NNE 8.1 mph - N/A   Mostly Cloudy
3:54 PM 75.9 °F 60.1 °F 58% 30.01 in 10.0 mi NNE 11.5 mph - N/A   Clear
4:54 PM 75.0 °F 60.1 °F 60% 30.01 in 10.0 mi North 10.4 mph - N/A   Clear
5:54 PM 71.1 °F 57.9 °F 63% 30.03 in 10.0 mi North 11.5 mph - N/A   Clear
6:54 PM 72.0 °F 59.0 °F 64% 30.04 in 10.0 mi NNW 9.2 mph - N/A   Clear
7:54 PM 66.0 °F 57.0 °F 73% 30.04 in 10.0 mi North 13.8 mph - N/A   Clear
8:54 PM 62.1 °F 55.0 °F 78% 30.07 in 10.0 mi North 9.2 mph - N/A   Clear
9:54 PM 60.1 °F 54.0 °F 80% 30.08 in 10.0 mi NNW 9.2 mph - N/A   Clear
10:54 PM 57.9 °F 53.1 °F 84% 30.09 in 10.0 mi NNW 5.8 mph - N/A   Partly Cloudy
11:54 PM 55.9 °F 53.1 °F 90% 30.10 in 10.0 mi NW 3.5 mph - N/A   Scattered Clouds